Regional Weather Roundup
Issued by NWS

Home | Current Version | Previous Version | Graphics & Text | Print | Product List | Glossary On
Versions: 1 2 3 4 5 6 7 8 9 10 11 12 13 14 15 16 17 18 19 20 21 22 23 24 25 26 27 28 29 30 31 32 33 34 35 36 37 38 39 40 41 42 43 44 45 46 47 48 49 50
000
ASUS43 KMPX 150710
RWRMN
WEATHER ROUNDUP FOR MINNESOTA
NATIONAL WEATHER SERVICE TWIN CITIES/CHANHASSEN MN
100 AM CST FRI DEC 15 2017


NOTE: "FAIR" INDICATES FEW OR NO CLOUDS BELOW 12,000 FEET WITH NO
SIGNIFICANT WEATHER AND/OR OBSTRUCTIONS TO VISIBILITY. N/A MEANS
CURRENT SKY AND/OR WEATHER CONDITIONS ARE NOT AVAILABLE.

MNZ060>063-068>070-150800-
   Twin Cities Metro

CITY           SKY/WX    TMP DP  RH WIND       PRES   REMARKS
TWIN CITIES    CLOUDY    23  17  78 W10       29.97F WCI  12
ST PAUL        CLOUDY    23  15  71 W14       29.98S WCI  11
CRYSTAL        CLOUDY    22  14  71 W8        29.95F WCI  12
BLAINE         CLOUDY    23  18  80 W10       29.94F WCI  12
LAKEVILLE      CLOUDY    21  18  86 W8        29.97F WCI  12
EDEN PRAIRIE   CLOUDY    23  16  74 W5        29.96F WCI  17
SOUTH ST PAUL  CLOUDY    24  15  71 W10G17    29.96F WCI  13
LAKE ELMO      CLOUDY    23  18  80 W9        29.96S WCI  13
$$
MNZ001>005-007-008-013>017-022>024-027-028-150800-
   Northwest Minnesota

CITY           SKY/WX    TMP DP  RH WIND       PRES   REMARKS
BEMIDJI        FLURRIES  14  10  85 NW14      29.90F WCI  -1
HALLOCK        CLOUDY    14  12  92 N3        29.97F
ROSEAU         FLURRIES  12   7  79 NW15      29.94F WCI  -4
WARROAD        FLURRIES  10   7  85 NW15      29.94S WCI  -6
THIEF RVR FALL FLURRIES  13   9  84 N7        29.96S WCI   3
CROOKSTON      CLOUDY    18  14  86 N8        29.98F WCI   7
FOSSTON        CLOUDY    16  12  86 NW8       29.93F WCI   5
DETROIT LAKES  CLOUDY    19  18  93 NW5       29.93F WCI  13
MOORHEAD       CLOUDY    19  16  86 CALM      29.97F
PARK RAPIDS    CLOUDY    15  11  83 W7        29.89F WCI   5
MAHNOMEN       CLOUDY    17  15  93 N5        29.94S WCI  10
$$
MNZ006-009>011-018-025>026-150800-
   North Central Minnesota

CITY           SKY/WX    TMP DP  RH WIND       PRES   REMARKS
BAUDETTE       CLOUDY     9   5  84 NW10G18   29.90F WCI  -5
FLAG ISLAND    LGT SNOW  10   5  79 NW15      29.91F WCI  -6
INTL FALLS     CLOUDY    10   4  76 W9        29.87F HAZE    WCI  -3
WASKISH        MOCLDY     9   3  78 NW8       29.91F WCI  -4
BIG FORK       LGT SNOW  12   9  85 CALM      29.87F
LONGVILLE      FLURRIES  14  10  85 NW5       29.90F WCI   6
GRAND RAPIDS   FLURRIES  13   9  84 NW12G20   29.89F WCI  -1
CRANE LAKE     LGT SNOW   9   7  92 W5        29.88F WCI   0
ORR            FLURRIES  10   3  72 NW7       29.82F WCI   0
COOK           LGT SNOW  10   7  85 NW7       29.85F WCI   0
WALKER         FLURRIES  14  10  86 NW8       29.90F WCI   2
$$
MNZ012-019>021-037-150800-
   Northeast Minnesota

CITY           SKY/WX    TMP DP  RH WIND       PRES   REMARKS
DULUTH         FLURRIES  11   7  84 NW9       29.83F WCI  -2
ELY            FLURRIES   9   5  85 NW6       29.82F WCI  -1
HIBBING        LGT SNOW  11   6  81 NW13      29.85F WCI  -4
EVELETH        LGT SNOW  12   6  77 NW8       29.85F WCI   1
DULUTH HARBOR  CLOUDY    18  10  73 W9        29.91F WCI   6
TWO HARBORS    FLURRIES  14   7  73 NW6       29.82F WCI   5
SILVER BAY     CLOUDY    12   7  79 NW6       29.82S WCI   3
GRAND MARAIS     N/A     15   6  67 VRB5      29.81F WCI   8
G MARAIS ARPRT FLURRIES   7   1  78 NW10G17   29.73F WCI  -8
$$
MNZ029>031-032-039>041-046>048-054>057-064-150800-
   West Central Minnesota

CITY           SKY/WX    TMP DP  RH WIND       PRES   REMARKS
FERGUS FALLS   CLOUDY    23  23 100 CALM      29.96F
WHEATON        MIX PCPN  30  28  93 W5        29.96F WCI  25
MORRIS         FLURRIES  28  27  93 CALM      29.92F
ALEXANDRIA     CLOUDY    23  20  88 CALM      29.92F
ELBOW LAKE     CLOUDY    23  22  96 CALM      29.93F
WADENA         CLOUDY    16  14  93 NW3       29.91F
GLENWOOD       CLEAR     23  21  93 SW7       29.93F WCI  15
APPLETON       LGT SNOW  30  27  86 W12       29.95F WCI  21
BENSON         LGT SNOW  27  25  93 W6        29.96F WCI  20
ORTONVILLE     CLOUDY    28  27  93 W6        29.94F WCI  22
MADISON        FLURRIES  32  30  93 W6        29.96F WCI  26
WILLMAR        FLURRIES  25  23  93 SW3       29.96F
$$
MNZ033>034-036-042>043-049>051-058-059-150800-
   Central Minnesota

CITY           SKY/WX    TMP DP  RH WIND       PRES   REMARKS
ST CLOUD       FLURRIES  21  17  84 NW8       29.94F WCI  11
SAUK CENTRE    CLOUDY    21  19  92 W3        29.94F
PAYNESVILLE    CLOUDY    23  22  96 CALM      29.94F
AITKIN         FLURRIES  14   9  79 W3        29.89F
PINE RIVER     FLURRIES  12   9  85 CALM      29.94F
BRAINERD       CLOUDY    16  10  77 NW6       29.92F WCI   7
STAPLES        CLOUDY    16  12  86 NW6       29.91F WCI   7
LONG PRAIRIE   CLOUDY    21  19  93 W3        29.94F
LITTLE FALLS   LGT SNOW  19  14  79 NW5       29.94F WCI  13
LITCHFIELD     CLOUDY    25  21  86 CALM      29.96F
BUFFALO        FLURRIES  22  18  84 W6        29.97F WCI  15
MAPLE LAKE     FLURRIES  24  20  88 W5        29.96F WCI  18
HUTCHINSON     CLOUDY    24  22  92 CALM      29.97F
$$
MNZ037-044-045-052-053-150800-
   East Central Minnesota

CITY           SKY/WX    TMP DP  RH WIND       PRES   REMARKS
PRINCETON      CLOUDY    21  16  79 W9        29.94F WCI  11
MORA           MOCLDY    18  10  73 NW6       29.93F WCI   9
CAMBRIDGE      CLOUDY    21  12  68 W7        29.93F WCI  13
RUSH CITY      MOCLDY    18  12  78 W3        29.93F
MOOSE LAKE     FLURRIES  14   9  79 W5        29.88F WCI   6
HINCKLEY       CLOUDY    18  12  79 NW3       29.91F
CLOQUET        FLURRIES  12   7  79 W9        29.86F WCI   0
MCGREGOR       CLOUDY    16  10  79 NW9       29.91S WCI   4
$$
MNZ071>073-080-081-089-090-097-098-150800-
   Southwest Minnesota

CITY           SKY/WX    TMP DP  RH WIND       PRES   REMARKS
MONTEVIDEO     FLURRIES  28  25  86 W5        29.96F WCI  23
GRANITE FALLS  FLURRIES  30  26  86 SW10      29.98F WCI  21
CANBY          FLURRIES  31  28  85 SW13      29.98F WCI  22
MARSHALL       FLURRIES  29  25  85 W17       29.98F WCI  17
REDWOOD FALLS  CLOUDY    28  23  81 W12       29.97F WCI  18
OLIVIA         PTCLDY    27  23  86 SW5       29.96F WCI  21
PIPESTONE      CLOUDY    27  25  93 W9        29.98F WCI  17
WINDOM           N/A     27  14  59 W9        29.99F WCI  17
WORTHINGTON    FLURRIES  25  22  88 SW13      30.00F WCI  14
JACKSON        CLOUDY    27  21  80 MISG      30.00F
TRACY          LGT SNOW  28  25  86 W8        29.98F WCI  20
SLAYTON        CLOUDY    26  24  89 W13       29.99F WCI  15
$$
MNZ065>067-074>077-082>085-091>093-150800-
   South Central Minnesota

CITY           SKY/WX    TMP DP  RH WIND       PRES   REMARKS
MANKATO        FLURRIES  24  21  88 W5        30.00F WCI  18
NEW ULM        CLOUDY    25  21  86 W6        29.99F WCI  18
ST JAMES       CLOUDY    27  21  80 SW8       30.00F WCI  18
FAIRMONT       CLOUDY    26  21  81 W8        30.00F WCI  18
GLENCOE        FLURRIES  24  22  91 CALM      29.97F
FARIBAULT      CLOUDY    23  18  80 W8        29.98F WCI  14
OWATONNA       CLOUDY    23  19  86 W9        29.97F WCI  13
WASECA         CLOUDY    23  21  93 W9        30.00F WCI  13
ALBERT LEA     CLOUDY    25  19  80 NW7       29.99S WCI  17
$$
MNZ078>079-086>088-094>096-150800-
   Southeast Minnesota

CITY           SKY/WX    TMP DP  RH WIND       PRES   REMARKS
ROCHESTER      CLOUDY    22  18  85 W14       29.94F WCI   9
RED WING       CLOUDY    25  14  63 NW8       29.94F WCI  16
STANTON        CLOUDY    24  18  77 W12       29.96F WCI  13
DODGE CENTER   FLURRIES  21  18  86 W14       29.95S WCI   8
WINONA           N/A     27  19  74 W10       29.96F WCI  17
AUSTIN         FLURRIES  25  18  74 W9        29.97F WCI  15
PRESTON        CLOUDY    22  16  78 NW12      29.94F WCI  10
$$
ABBREVIATIONS USED IN REMARKS
   TC - TEMPERATURES IN CELSIUS
  WCI - WIND CHILL INDEX
   HX - HEAT INDEX
  VSB - VISIBILITY
$$




USA.gov is the U.S. government's official web portal to all federal, state and local government web resources and services.